Regional Weather Roundup
Issued by NWS

Home | Current Version | Previous Version | Graphics & Text | Print | Product List | Glossary On
Versions: 1 2 3 4 5 6 7 8 9 10 11 12 13 14 15 16 17 18 19 20 21 22 23 24 25 26 27 28 29 30 31 32 33 34 35 36 37 38 39 40 41 42 43 44 45 46 47 48 49 50
000
ASUS43 KMKX 040300
RWRWI

WISCONSIN REGIONAL WEATHER ROUNDUP
NATIONAL WEATHER SERVICE MILWAUKEE/SULLIVAN WI
1000 PM CDT FRI JUL 03 2015

NOTE: "FAIR" INDICATES FEW OR NO CLOUDS BELOW 12,000 FEET WITH NO
SIGNIFICANT WEATHER AND/OR OBSTRUCTIONS TO VISIBILITY.

WIZ001-002-006>008-014>016-023>028-040400-
NORTHWEST WISCONSIN

CITY           SKY/WX    TMP DP  RH WIND       PRES   REMARKS
SUPERIOR ARPT  CLEAR     68  59  73 NW3       29.87R
ASHLAND        PTCLDY    64  63  96 CALM      29.88R FOG
HAYWARD        PTCLDY    66  63  90 CALM      29.90R
SIREN          MOCLDY    70  63  77 W6        29.89R
CUMBERLAND     MOCLDY    66  61  82 S6        29.91S
RICE LAKE      MOCLDY    69  60  73 S3        29.91S
CHETEK         MOCLDY    69  60  73 CALM      29.90S
LADYSMITH      MOCLDY    68  60  76 CALM      29.92R
EAU CLAIRE     NOT AVBL
MENOMONIE      CLEAR     69  58  68 CALM      29.91R
NEW RICHMOND   CLEAR     67  60  78 SW5       29.90S
OSCEOLA        CLEAR     67  62  84 CALM      29.92S
$$

WIZ003>005-009-010-017-018-040400-
NORTH CENTRAL WISCONSIN

CITY           SKY/WX    TMP DP  RH WIND       PRES   REMARKS
MANITOWISH WTR CLOUDY    61  61 100 S3        29.91R FOG
ARBOR VITAE    TSTM      62  60  93 CALM      29.92S
WOODRUFF       TSTM      62  60  93 CALM      29.92S
RHINELANDER    CLOUDY    67  59  75 VRB3      29.95R
EAGLE RIVER    MOCLDY    64  59  83 W3        29.90S
LAND O LAKES   PTCLDY    64  60  86 SW3       29.91S
PHILLIPS       PTCLDY    66  60  81 SW3       29.90S
TOMAHAWK       MOCLDY    62  58  88 CALM      29.92R FOG
MEDFORD        PTCLDY    65  58  79 W6        29.93R
MERRILL        PTCLDY    64  59  83 W3        29.93R
$$

WIZ029-030-035-036-043>047-040400-
CENTRAL WISCONSIN

CITY           SKY/WX    TMP DP  RH WIND       PRES   REMARKS
WAUSAU         CLEAR     69  56  62 W7        29.90R
MOSINEE        PTCLDY    64  55  72 W5        29.93R
MARSHFIELD     MOCLDY    65  57  75 SW5       29.92R
STEVENS POINT  CLEAR     67  56  67 CALM      29.93R
WAUPACA        CLEAR     67  59  77 CALM      29.91R
WAUTOMA        NOT AVBL
WISC RAPIDS    PTCLDY    65  57  75 W5        29.93R
CAMP DOUGLAS   CLEAR     62  62 100 W2        29.92R
$$

WIZ011>013-019>022-031-037>040-048>050-040400-
NORTHEAST WISCONSIN

CITY           SKY/WX    TMP DP  RH WIND       PRES   REMARKS
ANTIGO         PTCLDY    62  57  83 SW5       29.93R
SHAWANO        CLEAR     69  58  69 CALM      29.90R
OCONTO         PTCLDY    63  57  81 CALM      29.88R
STURGEON BAY   CLEAR     64  50  59 S7        29.91S
GREEN BAY      PTCLDY    70  57  63 SW3       29.90R
MANITOWOC      NOT AVBL
APPLETON       MOCLDY    66  55  68 SW6       29.91S
CLINTONVILLE   CLEAR     64  59  82 CALM      29.90R
OSHKOSH        CLEAR     66  56  70 SW3       29.91R
$$

WIZ032>034-041-042-053>061-040400-
SOUTHWEST WISCONSIN

CITY           SKY/WX    TMP DP  RH WIND       PRES   REMARKS
LA CROSSE      CLEAR     67  59  75 E3        29.92R
SPARTA         CLEAR     62  57  83 CALM      29.93R
VIROQUA        CLEAR     66  59  80 CALM      29.94R
BOSCOBEL       CLEAR     62  59  90 CALM      29.93R
PRAIRIE DU CHI CLEAR     65  59  81 CALM      29.92S
PLATTEVILLE    CLEAR     66  54  64 W3        29.94S
$$

WIZ056-057-062-063-064-067-068-040400-
SOUTH CENTRAL WISCONSIN

CITY           SKY/WX    TMP DP  RH WIND       PRES   REMARKS
REEDSBURG      CLEAR     66  59  77 W3        29.92S
BARABOO/DELLS  CLEAR     63  56  78 CALM      29.92S
LONE ROCK      NOT AVBL
MINERAL POINT  CLEAR     66  55  68 CALM      29.94S
MADISON        PTCLDY    63  54  72 CALM      29.93R
MIDDLETON      CLEAR     64  57  80 CALM      29.94R
WATERTOWN      CLEAR     61  58  88 CALM      29.92R
MONROE         CLEAR     68  52  56 W7        29.94R
JANESVILLE     CLEAR     64  59  82 CALM      29.93R
$$

WIZ051-052-058>065-066-070>072-040400-
SOUTHEAST WISCONSIN

CITY           SKY/WX    TMP DP  RH WIND       PRES   REMARKS
MILWAUKEE      PTCLDY    63  53  70 S5        29.93R
WAUKESHA       CLEAR     63  52  67 S5        29.94R
MILWAUKEE/TIMM CLEAR     64  46  52 CALM      29.94R
RACINE         CLEAR     60  53  77 CALM      29.95R
BURLINGTON     CLEAR     59  55  84 CALM      29.94R
KENOSHA        FAIR      60  53  77 SE3       29.94R
FOND DU LAC    CLEAR     64  56  75 S6        29.91S
SHEBOYGAN      CLEAR     60  52  74 S3        29.92S
WEST BEND      CLEAR     61  54  77 CALM      29.93R
JUNEAU         CLEAR     65  55  69 CALM      29.94R
$$

LSZ147-162-040400-
LAKE SUPERIOR

STATION/POSITION TIME  TEMP    WIND        PRES    WAVE
                       AIR SEA DIR/SP/G            HT/PER
                 (UTC) (F)     (DEG/KT/KT) (MB)    (FT/S)
W MID LAKE BUOY  0150   50 39   50/  4/  4 1010.9R   1/ 4
DEVILS ISLAND    0200   68     290/  5/  6 1010.8R
SAXON HARBOR     0240   66        CALM     1011.2R
$$

LMZ867-665-643>646-040400-
LAKE MICHIGAN

STATION/POSITION TIME  TEMP    WIND        PRES    WAVE
                       AIR SEA DIR/SP/G            HT/PER
                 (UTC) (F)     (DEG/KT/KT) (MB)    (FT/S)
CHAMBERS ISLAND  0200   70     190/  4/ 12 1011.2F
S GREEN BAY BUOY 0100   71 69  210/  8/ 12 1013.2F
N MID LAKE BUOY  0150   51 43  210/ 12/ 14 1011.4F   2/ 4
NORTHPORT PIER   0200   65     170/  4/  8 1011.5S
SISTER BAY       0114   66     160/  8/  9   N/A
ALGOMA LAKESHORE 0210          230/ 12/ 13   N/A
KEWAUNEE LAKESHO 0200   63     180/  9/ 10 1011.8F
SHEBOYGAN LAKESH 0200   64     200/  7/  8 1013.3R
PORT WASHINGTON  0240   62     200/  2/  3 1014.2R
ATWATER BUOY     0200   62 61  160/  6/  6 1014.4S
MILWAUKEE LAKESH 0200   63     150/  6/  6   N/A
KENOSHA   LAKESH 0200   63     190/  3/  5 1012.9S
$$

TC  - TEMPERATURE IN CELSIUS
VSB - VISIBILITY IN STATUTE MILES
WCI - WIND CHILL INDEX
HX  - HEAT INDEX



USA.gov is the U.S. government's official web portal to all federal, state and local government web resources and services.